SCP
0 0 0 0 0 0 0 0 0 0 0 0 0 0 0 0 0 0 0 0 0 0 0 0 0 0 0 0 0 0 0 0 0 0 0 0 0 0 0 0 0 0 0
0 0 0 0 0 0 0 0 0 0 0 0 0 0 0 0 0 0 0 0 0 0 0 0 0 0 0 0 0 0 0 0 0 0 0 0 0 0 0 0 0 0 0
0 0 0 0 0 0 0 0 0 0 0 0 0 0 0 0 0 0 0 0 0 0 0 0 0 0 0 0 0 0 0 0 0 0 0 0 0 0 0 0 0 0 0
0 0 0 0 0 0 0 0 0 0 0 0 0 0 0 0 0 0 0 0 0 0 0 0 0 0 0 0 0 0 0 0 0 0 0 0 0 0 0 0 0 0 0
0 0 0 0 0 0 0 0 0 0 0 0 0 0 0 0 0 0 0 0 0 0 0 0 0 0 0 0 0 0 0 0 0 0 0 0 0 0 0 0 0 0 0
0 0 0 0 0 0 0 0 0 0 0 0 0 0 0 0 0 0 0 0 0 0 0 0 0 0 0 0 0 0 0 0 0 0 0 0 0 0 0 0 0 0 0
0 0 0 0 0 0 0 0 0 0 0 0 0 0 0 0 0 0 0 0 0 0 0 0 0 0 0 0 0 0 0 0 0 0 0 0 0 0 0 0 0 0 0
0 0 0 0 0 0 0 0 0 0 0 0 0 0 0 0 0 0 0 0 0 0 0 0 0 0 0 0 0 0 0 0 0 0 0 0 0 0 0 0 0 0 0
0 0 0 0 0 0 0 0 0 0 0 0 0 0 0 0 0 0 0 0 0 0 0 0 0 0 0 0 0 0 0 0 0 0 0 0 0 0 0 0 0 0 0
0 0 0 0 0 0 0 0 0 0 0 0 0 0 0 0 0 0 0 0 0 0 0 0 0 0 0 0 0 0 0 0 0 0 0 0 0 0 0 0 0 0 0
0 0 0 0 0 0 0 0 0 0 0 0 0 0 0 0 0 0 0 0 0 0 0 0 0 0 0 0 0 0 0 0 0 0 0 0 0 0 0 0 0 0 0
0 0 0 0 0 0 0 0 0 0 0 0 0 0 0 0 0 0 0 0 -0 -0 0 0 0 0 0 0 0 0 0 0 0 0 0 0 0 0 0 0 0 0 0
0 0 0 0 0 0 0 0 0 0 0 0 0 0 0 0 0 0 0 0 0 -0 -0 -0 0 0 0 0 0 0 0 0 0 0 0 0 0 0 0 0 0 0 0
0 0 0 0 0 0 0 0 0 0 0 0 0 0 0 0 0 0 0 0 0 -0 -0 -0 -0 0 0 0 0 0 0 0 0 0 0 0 0 0 0 0 0 0 0
0 0 0 0 0 0 0 0 0 0 0 0 0 0 0 0 0 0 0 0 0 0 -0 -0 -0 -0 0 0 0 0 0 0 0 0 0 0 0 0 0 0 0 0 0
0 0 0 0 0 0 0 0 -0 0 -0 -0 0 0 0 0 0 0 0 0 0 0 0 0 0 0 0 0 0 0 0 0 0 0 0 0 0 0 0 0 0 0 0
0 0 0 -0 -0 -0 -0 -0 -0 -0 -0 -0 0 0 0 0 0 0 0 0 0 0 0 0 0 0 0 0 0 0 0 0 0 0 0 0 0 0 0 0 0 0 0
0 0 0 0 0 0 0 -0 -0 -0 -0 -0 -0 0 0 0 0 0 0 0 0 0 0 0 0 0 0 0 0 0 0 0 0 0 0 0 0 0 0 0 0 0 0
0 0 0 0 0 0 0 0 -0 -0 -0 -0 -0 -0 0 0 0 0 0 0 0 0 0 0 0 0 0 0 0 0 0 0 0 0 0 0 0 0 0 0 0 0 0
0 0 0 -0 -0 -0 -0 -0 -0 -0 0 0 0 0 0 0 0 0 0 0 0 0 0 0 0 0 0 0 0 0 0 0 0 0 0 0 0 0 0 0 0 0 0
0 0 0 -0 -0 -0 -0 -0 -0 -0 0 0 0 0 0 0 0 0 0 0 0 0 0 0 0 0 0 0 0 0 0 0 0 0 0 0 0 0 0 0 0 0 0
0 0 -0 0 -0 -0 0 0 0 0 0 0 0 0 0 0 0 0 0 0 0 0 0 0 0 0 0 0 0 0 0 0 0 0 0 0 0 0 0 0 0 0 0
0 0 0 0 0 0 -0 0 0 0 0 0 0 0 0 0 0 0 0 0 0 0 0 0 0 0 0 0 0 0 0 0 0 0 0 0 0 0 0 0 0 0 0
0 0 0 0 0 0 -0 -0 0 0 0 0 0 0 0 0 0 0 0 0 0 0 0 0 0 0 0 0 0 0 0 0 0 0 0 0 0 0 0 0 0 0 0
0 0 0 0 0 0 -0 -0 0 0 0 0 0 0 0 0 0 0 0 0 0 0 0 0 0 0 0 0 0 0 0 0 0 0 0 0 0 0 0 0 0 0 0
0 0 0 0 0 0 -0 0 0 0 0 0 0 0 0 0 0 0 0 0 0 0 0 0 0 0 0 0 0 0 0 0 0 0 0 0 0 0 0 0 0 0 0
Wind_Speed_500mb
48 45 46 43 40 39 37 36 34 32 34 35 34 34 32 31 29 28 27 25 25 26 26 26 27 30 27 27 30 33 27 25 29 32 37 32 31 34 36 39 43 42 41
50 50 44 45 43 41 35 37 38 38 39 40 41 40 38 38 35 33 32 31 29 28 28 28 30 32 29 29 35 33 26 26 28 31 32 29 30 30 32 35 36 41 45
40 43 44 47 48 49 41 38 42 44 44 45 46 45 45 44 42 40 38 36 34 32 32 31 31 33 32 30 29 35 28 25 30 31 30 29 34 33 33 33 34 37 40
36 43 46 48 45 46 46 42 46 46 45 46 47 48 50 50 49 47 47 44 41 38 36 35 35 34 33 30 31 32 38 31 30 23 24 27 33 30 28 29 32 36 35
32 37 41 41 44 45 46 42 44 43 45 45 47 48 52 55 55 55 54 51 48 44 42 40 39 38 37 35 34 36 29 39 31 25 26 27 31 26 27 26 26 30 32
27 30 31 31 34 39 41 41 41 40 43 45 50 54 56 57 58 60 60 58 55 52 49 46 44 42 42 40 38 39 34 34 44 29 27 29 30 29 29 29 30 30 30
20 18 20 28 29 30 35 36 41 41 43 45 49 56 60 61 63 62 63 63 60 58 56 54 51 48 46 46 46 47 39 34 46 42 32 32 36 34 33 33 32 32 33
20 22 26 20 25 26 28 31 35 39 42 43 48 52 49 54 55 56 61 62 64 66 65 61 59 55 52 51 53 55 54 43 42 46 42 33 37 36 35 36 35 36 35
15 21 23 25 29 31 33 32 31 34 39 42 44 39 21 12 29 16 19 31 45 59 64 66 65 62 59 57 57 60 59 58 53 51 45 46 37 34 35 37 38 38 37
14 14 17 21 27 29 31 35 37 35 37 42 44 46 50 56 61 45 45 43 31 45 46 47 51 60 63 63 63 62 61 62 63 62 60 56 49 41 40 42 42 41 38
19 20 19 19 23 27 29 30 32 34 35 39 42 47 51 52 56 65 80 76 69 68 67 65 62 57 55 60 65 67 67 66 67 67 66 63 61 52 47 47 47 45 43
23 24 24 24 23 22 28 34 34 32 32 38 42 43 49 52 55 58 69 82 87 91 85 80 74 69 68 67 66 68 69 71 70 69 69 69 68 61 54 53 51 50 48
25 27 29 30 31 31 29 29 31 30 31 36 41 43 46 51 53 57 64 77 91 95 97 94 87 83 77 71 70 68 70 73 74 73 71 72 74 69 60 59 57 56 54
30 31 34 36 39 41 39 37 43 42 33 30 31 37 46 48 50 53 58 63 80 93 94 92 89 83 81 80 75 69 70 72 75 77 75 76 76 74 70 66 62 61 60
36 36 36 37 40 43 46 47 46 48 48 49 43 38 39 41 45 48 54 57 58 70 93 73 67 70 69 72 76 77 81 76 73 77 79 79 79 80 77 71 69 66 65
38 41 45 46 49 51 52 55 57 57 61 59 56 56 54 51 49 49 50 52 56 65 87 90 95 95 90 84 79 82 82 80 80 74 79 83 84 81 80 78 76 71 70
46 49 53 56 57 61 64 67 67 68 69 72 70 70 71 66 65 61 59 59 61 62 78 84 84 88 92 91 86 84 88 90 87 83 77 80 87 89 86 83 81 78 75
43 47 51 56 61 69 76 84 87 87 88 89 88 84 84 80 79 78 75 73 72 70 75 85 79 79 86 83 86 87 84 87 96 94 87 78 79 88 91 86 86 86 82
54 59 66 73 78 82 85 87 91 95 97 97 98 98 99 93 91 86 84 86 86 84 84 88 93 84 84 82 83 84 86 84 87 92 97 96 91 86 91 94 93 91 89
65 72 80 87 91 95 97 97 94 93 96 98 100 102 103 104 103 100 94 91 90 93 94 98 103 98 92 89 85 86 90 85 88 85 91 98 97 95 96 100 99 97 96
78 85 89 91 94 94 94 93 89 91 95 100 104 106 107 107 105 103 84 91 89 93 96 99 109 101 96 94 94 84 90 88 90 83 87 93 99 101 103 104 108 106 102
82 86 89 90 92 94 95 95 92 94 98 101 106 109 107 106 107 95 86 77 76 80 86 80 88 89 98 83 88 90 88 88 95 90 78 93 93 106 107 107 109 110 108
86 87 88 90 94 98 97 94 86 86 94 97 97 98 99 99 90 83 81 79 83 87 87 90 94 95 91 87 75 78 88 87 98 92 82 88 81 92 104 110 110 110 108
86 89 90 94 99 100 94 89 80 77 85 87 86 84 82 85 83 75 78 84 89 93 94 94 99 115 109 103 85 84 85 95 100 95 88 97 83 95 89 92 97 110 111
86 89 91 94 96 96 86 80 75 75 77 78 75 72 66 69 65 61 66 76 84 93 91 89 95 98 101 101 91 89 85 84 93 95 96 97 92 84 88 91 93 96 97
88 88 90 87 87 87 80 74 66 62 71 74 73 73 71 66 62 59 65 74 86 88 81 83 84 88 91 102 107 105 104 101 90 89 87 90 92 84 84 96 95 91 88
Wind_Direction_500mb
250 253 256 260 267 271 276 283 281 272 262 257 256 259 261 264 267 271 275 277 280 286 290 291 290 291 292 292 291 291 295 280 255 246 251 257 255 247 242 239 236 232 231
256 254 260 265 274 282 279 279 278 273 267 259 258 260 262 264 265 266 269 274 276 280 282 284 285 288 291 291 291 292 299 285 269 263 266 268 259 256 253 251 248 240 238
256 253 264 267 274 280 287 284 282 276 271 267 263 261 261 263 263 263 264 266 268 269 273 275 277 281 285 287 269 284 296 287 281 278 272 265 266 264 264 263 257 251 246
263 260 267 272 273 282 277 282 287 279 277 274 270 266 264 262 261 261 260 261 263 264 267 270 270 270 273 272 248 261 289 289 289 282 278 270 269 272 268 265 262 259 254
263 270 275 274 276 274 276 278 285 283 281 277 277 273 270 267 263 259 259 259 261 262 263 266 269 270 268 264 241 247 263 285 287 283 281 274 277 278 274 275 271 270 266
265 265 269 271 273 277 277 284 286 287 287 284 283 280 276 273 269 265 262 260 261 261 262 263 265 265 265 264 243 241 247 254 277 281 274 273 276 274 272 269 267 267 270
248 262 279 280 281 279 272 285 286 288 289 293 292 287 283 279 274 270 267 267 267 267 267 265 265 262 261 261 255 253 255 245 260 279 278 271 275 272 269 268 267 265 263
265 270 267 263 265 282 296 287 286 289 287 289 291 299 302 291 286 278 271 268 267 265 265 264 263 263 261 258 255 259 262 249 254 265 278 276 278 273 269 269 268 265 264
293 285 279 273 274 278 281 287 289 289 287 285 289 285 301 293 320 300 299 286 271 267 265 265 264 263 261 260 257 257 262 261 254 250 259 278 275 272 270 268 265 264 263
332 317 311 296 281 282 283 282 282 285 286 285 283 282 283 284 287 295 281 277 273 286 285 287 280 270 266 263 262 261 263 262 261 261 261 268 273 274 274 272 268 262 257
12 6 358 340 326 320 310 303 290 285 286 282 280 283 283 283 283 283 288 289 283 276 276 275 274 277 281 275 268 265 263 262 260 260 261 262 266 271 272 272 268 261 257
28 22 21 23 18 359 343 331 321 314 303 289 284 279 278 284 285 283 286 287 287 283 278 272 270 268 267 269 275 274 268 264 260 259 259 259 261 265 266 267 266 260 255
13 12 8 3 1 2 2 359 352 336 323 310 302 297 286 278 277 279 284 286 288 289 286 282 276 272 268 263 261 266 273 270 263 260 259 258 258 261 261 261 261 259 256
8 1 355 352 349 345 344 344 342 342 340 331 323 309 300 296 290 283 280 287 292 288 289 288 286 280 272 266 262 261 264 267 268 264 259 257 257 259 259 257 257 257 256
350 349 345 342 338 334 332 331 329 327 326 326 324 318 313 309 302 295 288 282 280 289 291 293 293 291 286 277 270 265 262 261 266 266 263 260 258 257 257 257 256 255 254
338 335 333 332 332 330 327 324 322 318 315 313 313 311 307 307 303 300 298 292 283 277 279 284 285 286 286 282 275 268 262 258 257 261 263 261 262 261 257 255 256 255 252
330 330 329 328 327 325 322 318 315 311 307 305 303 302 299 299 297 296 295 292 292 289 283 286 287 289 287 285 281 274 268 262 258 255 258 262 262 261 258 253 253 253 252
321 321 319 318 318 316 315 314 311 309 307 304 301 297 294 293 291 291 290 289 287 287 288 290 289 288 290 289 286 280 273 266 260 255 254 256 261 260 259 256 251 250 250
322 320 318 316 314 311 308 305 304 302 300 299 298 296 294 292 288 285 284 284 284 286 285 286 288 286 285 288 289 285 280 273 266 258 254 253 253 258 260 259 255 251 249
317 316 315 314 313 312 311 309 306 301 299 296 294 292 291 290 291 291 288 284 281 280 280 282 283 284 283 284 284 286 286 279 273 266 258 254 252 252 255 258 257 254 250
315 314 313 312 312 311 310 309 306 302 298 296 293 291 290 289 288 288 286 286 285 284 283 280 278 280 279 278 277 283 284 287 284 274 266 257 253 251 250 253 255 255 253
311 311 311 312 311 310 309 306 304 299 296 292 291 290 288 287 286 286 283 279 275 275 275 274 275 275 275 271 274 277 277 279 280 280 274 265 255 253 249 248 251 254 255
311 312 312 311 312 311 310 310 305 298 294 290 287 284 282 281 280 279 279 278 273 267 263 267 269 268 271 270 271 269 269 269 272 275 272 270 265 257 254 251 250 252 253
312 313 313 314 313 313 315 314 309 301 296 294 292 292 291 291 288 286 283 281 277 275 272 269 267 268 266 266 263 265 265 268 271 269 266 265 264 263 261 258 254 252 253
313 313 314 316 316 316 320 317 311 304 299 298 298 298 298 297 296 292 288 286 285 282 280 273 269 268 268 265 264 264 258 254 256 257 257 257 258 260 261 260 256 253 254
312 314 316 318 317 321 320 315 310 304 302 303 303 303 305 296 295 292 287 285 284 284 286 285 286 283 278 268 258 251 255 250 249 251 247 248 254 249 252 258 258 256 252
Wind_Speed_850mb
48 45 46 43 40 39 37 36 34 32 34 35 34 34 32 31 29 28 27 25 25 26 26 26 27 30 27 27 30 33 27 25 29 32 37 32 31 34 36 39 43 42 41
50 50 44 45 43 41 35 37 38 38 39 40 41 40 38 38 35 33 32 31 29 28 28 28 30 32 29 29 35 33 26 26 28 31 32 29 30 30 32 35 36 41 45
40 43 44 47 48 49 41 38 42 44 44 45 46 45 45 44 42 40 38 36 34 32 32 31 31 33 32 30 29 35 28 25 30 31 30 29 34 33 33 33 34 37 40
36 43 46 48 45 46 46 42 46 46 45 46 47 48 50 50 49 47 47 44 41 38 36 35 35 34 33 30 31 32 38 31 30 23 24 27 33 30 28 29 32 36 35
32 37 41 41 44 45 46 42 44 43 45 45 47 48 52 55 55 55 54 51 48 44 42 40 39 38 37 35 34 36 29 39 31 25 26 27 31 26 27 26 26 30 32
27 30 31 31 34 39 41 41 41 40 43 45 50 54 56 57 58 60 60 58 55 52 49 46 44 42 42 40 38 39 34 34 44 29 27 29 30 29 29 29 30 30 30
20 18 20 28 29 30 35 36 41 41 43 45 49 56 60 61 63 62 63 63 60 58 56 54 51 48 46 46 46 47 39 34 46 42 32 32 36 34 33 33 32 32 33
20 22 26 20 25 26 28 31 35 39 42 43 48 52 49 54 55 56 61 62 64 66 65 61 59 55 52 51 53 55 54 43 42 46 42 33 37 36 35 36 35 36 35
15 21 23 25 29 31 33 32 31 34 39 42 44 39 21 12 29 16 19 31 45 59 64 66 65 62 59 57 57 60 59 58 53 51 45 46 37 34 35 37 38 38 37
14 14 17 21 27 29 31 35 37 35 37 42 44 46 50 56 61 45 45 43 31 45 46 47 51 60 63 63 63 62 61 62 63 62 60 56 49 41 40 42 42 41 38
19 20 19 19 23 27 29 30 32 34 35 39 42 47 51 52 56 65 80 76 69 68 67 65 62 57 55 60 65 67 67 66 67 67 66 63 61 52 47 47 47 45 43
23 24 24 24 23 22 28 34 34 32 32 38 42 43 49 52 55 58 69 82 87 91 85 80 74 69 68 67 66 68 69 71 70 69 69 69 68 61 54 53 51 50 48
25 27 29 30 31 31 29 29 31 30 31 36 41 43 46 51 53 57 64 77 91 95 97 94 87 83 77 71 70 68 70 73 74 73 71 72 74 69 60 59 57 56 54
30 31 34 36 39 41 39 37 43 42 33 30 31 37 46 48 50 53 58 63 80 93 94 92 89 83 81 80 75 69 70 72 75 77 75 76 76 74 70 66 62 61 60
36 36 36 37 40 43 46 47 46 48 48 49 43 38 39 41 45 48 54 57 58 70 93 73 67 70 69 72 76 77 81 76 73 77 79 79 79 80 77 71 69 66 65
38 41 45 46 49 51 52 55 57 57 61 59 56 56 54 51 49 49 50 52 56 65 87 90 95 95 90 84 79 82 82 80 80 74 79 83 84 81 80 78 76 71 70
46 49 53 56 57 61 64 67 67 68 69 72 70 70 71 66 65 61 59 59 61 62 78 84 84 88 92 91 86 84 88 90 87 83 77 80 87 89 86 83 81 78 75
43 47 51 56 61 69 76 84 87 87 88 89 88 84 84 80 79 78 75 73 72 70 75 85 79 79 86 83 86 87 84 87 96 94 87 78 79 88 91 86 86 86 82
54 59 66 73 78 82 85 87 91 95 97 97 98 98 99 93 91 86 84 86 86 84 84 88 93 84 84 82 83 84 86 84 87 92 97 96 91 86 91 94 93 91 89
65 72 80 87 91 95 97 97 94 93 96 98 100 102 103 104 103 100 94 91 90 93 94 98 103 98 92 89 85 86 90 85 88 85 91 98 97 95 96 100 99 97 96
78 85 89 91 94 94 94 93 89 91 95 100 104 106 107 107 105 103 84 91 89 93 96 99 109 101 96 94 94 84 90 88 90 83 87 93 99 101 103 104 108 106 102
82 86 89 90 92 94 95 95 92 94 98 101 106 109 107 106 107 95 86 77 76 80 86 80 88 89 98 83 88 90 88 88 95 90 78 93 93 106 107 107 109 110 108
86 87 88 90 94 98 97 94 86 86 94 97 97 98 99 99 90 83 81 79 83 87 87 90 94 95 91 87 75 78 88 87 98 92 82 88 81 92 104 110 110 110 108
86 89 90 94 99 100 94 89 80 77 85 87 86 84 82 85 83 75 78 84 89 93 94 94 99 115 109 103 85 84 85 95 100 95 88 97 83 95 89 92 97 110 111
86 89 91 94 96 96 86 80 75 75 77 78 75 72 66 69 65 61 66 76 84 93 91 89 95 98 101 101 91 89 85 84 93 95 96 97 92 84 88 91 93 96 97
88 88 90 87 87 87 80 74 66 62 71 74 73 73 71 66 62 59 65 74 86 88 81 83 84 88 91 102 107 105 104 101 90 89 87 90 92 84 84 96 95 91 88
Wind_Direction_850mb
250 253 256 260 267 271 276 283 281 272 262 257 256 259 261 264 267 271 275 277 280 286 290 291 290 291 292 292 291 291 295 280 255 246 251 257 255 247 242 239 236 232 231
256 254 260 265 274 282 279 279 278 273 267 259 258 260 262 264 265 266 269 274 276 280 282 284 285 288 291 291 291 292 299 285 269 263 266 268 259 256 253 251 248 240 238
256 253 264 267 274 280 287 284 282 276 271 267 263 261 261 263 263 263 264 266 268 269 273 275 277 281 285 287 269 284 296 287 281 278 272 265 266 264 264 263 257 251 246
263 260 267 272 273 282 277 282 287 279 277 274 270 266 264 262 261 261 260 261 263 264 267 270 270 270 273 272 248 261 289 289 289 282 278 270 269 272 268 265 262 259 254
263 270 275 274 276 274 276 278 285 283 281 277 277 273 270 267 263 259 259 259 261 262 263 266 269 270 268 264 241 247 263 285 287 283 281 274 277 278 274 275 271 270 266
265 265 269 271 273 277 277 284 286 287 287 284 283 280 276 273 269 265 262 260 261 261 262 263 265 265 265 264 243 241 247 254 277 281 274 273 276 274 272 269 267 267 270
248 262 279 280 281 279 272 285 286 288 289 293 292 287 283 279 274 270 267 267 267 267 267 265 265 262 261 261 255 253 255 245 260 279 278 271 275 272 269 268 267 265 263
265 270 267 263 265 282 296 287 286 289 287 289 291 299 302 291 286 278 271 268 267 265 265 264 263 263 261 258 255 259 262 249 254 265 278 276 278 273 269 269 268 265 264
293 285 279 273 274 278 281 287 289 289 287 285 289 285 301 293 320 300 299 286 271 267 265 265 264 263 261 260 257 257 262 261 254 250 259 278 275 272 270 268 265 264 263
332 317 311 296 281 282 283 282 282 285 286 285 283 282 283 284 287 295 281 277 273 286 285 287 280 270 266 263 262 261 263 262 261 261 261 268 273 274 274 272 268 262 257
12 6 358 340 326 320 310 303 290 285 286 282 280 283 283 283 283 283 288 289 283 276 276 275 274 277 281 275 268 265 263 262 260 260 261 262 266 271 272 272 268 261 257
28 22 21 23 18 359 343 331 321 314 303 289 284 279 278 284 285 283 286 287 287 283 278 272 270 268 267 269 275 274 268 264 260 259 259 259 261 265 266 267 266 260 255
13 12 8 3 1 2 2 359 352 336 323 310 302 297 286 278 277 279 284 286 288 289 286 282 276 272 268 263 261 266 273 270 263 260 259 258 258 261 261 261 261 259 256
8 1 355 352 349 345 344 344 342 342 340 331 323 309 300 296 290 283 280 287 292 288 289 288 286 280 272 266 262 261 264 267 268 264 259 257 257 259 259 257 257 257 256
350 349 345 342 338 334 332 331 329 327 326 326 324 318 313 309 302 295 288 282 280 289 291 293 293 291 286 277 270 265 262 261 266 266 263 260 258 257 257 257 256 255 254
338 335 333 332 332 330 327 324 322 318 315 313 313 311 307 307 303 300 298 292 283 277 279 284 285 286 286 282 275 268 262 258 257 261 263 261 262 261 257 255 256 255 252
330 330 329 328 327 325 322 318 315 311 307 305 303 302 299 299 297 296 295 292 292 289 283 286 287 289 287 285 281 274 268 262 258 255 258 262 262 261 258 253 253 253 252
321 321 319 318 318 316 315 314 311 309 307 304 301 297 294 293 291 291 290 289 287 287 288 290 289 288 290 289 286 280 273 266 260 255 254 256 261 260 259 256 251 250 250
322 320 318 316 314 311 308 305 304 302 300 299 298 296 294 292 288 285 284 284 284 286 285 286 288 286 285 288 289 285 280 273 266 258 254 253 253 258 260 259 255 251 249
317 316 315 314 313 312 311 309 306 301 299 296 294 292 291 290 291 291 288 284 281 280 280 282 283 284 283 284 284 286 286 279 273 266 258 254 252 252 255 258 257 254 250
315 314 313 312 312 311 310 309 306 302 298 296 293 291 290 289 288 288 286 286 285 284 283 280 278 280 279 278 277 283 284 287 284 274 266 257 253 251 250 253 255 255 253
311 311 311 312 311 310 309 306 304 299 296 292 291 290 288 287 286 286 283 279 275 275 275 274 275 275 275 271 274 277 277 279 280 280 274 265 255 253 249 248 251 254 255
311 312 312 311 312 311 310 310 305 298 294 290 287 284 282 281 280 279 279 278 273 267 263 267 269 268 271 270 271 269 269 269 272 275 272 270 265 257 254 251 250 252 253
312 313 313 314 313 313 315 314 309 301 296 294 292 292 291 291 288 286 283 281 277 275 272 269 267 268 266 266 263 265 265 268 271 269 266 265 264 263 261 258 254 252 253
313 313 314 316 316 316 320 317 311 304 299 298 298 298 298 297 296 292 288 286 285 282 280 273 269 268 268 265 264 264 258 254 256 257 257 257 258 260 261 260 256 253 254
312 314 316 318 317 321 320 315 310 304 302 303 303 303 305 296 295 292 287 285 284 284 286 285 286 283 278 268 258 251 255 250 249 251 247 248 254 249 252 258 258 256 252